DC9VQ-13 Weather Reports


time (UTC)temp
C
wind
direction
speed
KPH
gust
KPH
rain 1hr
cm
rain 24hr
cm
rain mn
cm
humidity
%
barometer
mb
20260507075840 11 0.0 0.0 0.00 0.20 0.05 80 1013.5
20260507074839 11 0.0 0.0 0.00 0.20 0.05 79 1013.4
20260507073837 11 0.0 0.0 0.00 0.20 0.05 80 1013.2
20260507072835 11 0.0 0.0 0.00 0.20 0.05 80 1013.1
20260507071833 11 0.0 0.0 0.00 0.20 0.05 80 1013.0
20260507070831 11 0.0 0.0 0.00 0.20 0.05 81 1013.0
20260507065829 11 0.0 0.0 0.00 0.20 0.05 82 1012.9
20260507064827 11 0.0 0.0 0.00 0.20 0.05 83 1012.9
20260507063824 10 0.0 0.0 0.00 0.20 0.05 83 1012.7
20260507062824 10 0.0 0.0 0.00 0.20 0.05 84 1012.6
20260507061821 10 0.0 0.0 0.00 0.20 0.05 86 1012.5
20260507060819 10 0.0 0.0 0.00 0.20 0.05 86 1012.4
20260507055818 10 0.0 0.0 0.00 0.20 0.05 87 1012.3
20260507054815 10 0.0 0.0 0.00 0.20 0.05 87 1012.2
20260507053813 10 0.0 0.0 0.00 0.20 0.05 86 1012.1
20260507052811 10 0.0 0.0 0.00 0.20 0.05 86 1012.0
20260507051809 10 0.0 0.0 0.00 0.20 0.05 87 1011.9
20260507050807 10 0.0 0.0 0.00 0.20 0.05 87 1011.8
20260507045805 10 0.0 0.0 0.00 0.20 0.05 87 1011.6
20260507044802 10 0.0 0.0 0.00 0.20 0.05 87 1011.5
20260507043800 10 0.0 0.0 0.00 0.20 0.05 87 1011.3
20260507042759 10 0.0 0.0 0.00 0.20 0.05 88 1011.3
20260507041757 10 0.0 0.0 0.00 0.20 0.05 88 1011.1
20260507040755 10 0.0 0.0 0.00 0.20 0.05 88 1011.0
20260507035753 10 0.0 0.0 0.00 0.20 0.05 88 1011.0
20260507034751 10 0.0 0.0 0.00 0.20 0.05 88 1010.9
20260507033749 10 0.0 0.0 0.00 0.20 0.05 89 1011.0
20260507032747 10 0.0 0.0 0.00 0.20 0.05 89 1010.9
20260507031744 10 0.0 0.0 0.00 0.20 0.05 89 1010.8
20260507030743 10 0.0 0.0 0.00 0.20 0.05 89 1010.8
20260507025742 10 0.0 0.0 0.03 0.20 0.05 89 1010.7
20260507024739 10 0.0 0.0 0.03 0.20 0.05 90 1010.7
20260507023737 10 0.0 0.0 0.03 0.20 0.05 90 1010.6
20260507022735 10 0.0 0.0 0.05 0.20 0.05 90 1010.6
20260507021734 10 0.0 0.0 0.05 0.20 0.05 90 1010.4
20260507020731 10 0.0 0.0 0.03 0.18 0.03 89 1010.4
20260507015728 10 0.0 0.0 0.03 0.18 0.03 88 1010.2
20260507014727 10 0.0 0.0 0.03 0.18 0.03 88 1010.2
20260507013725 10 0.0 0.0 0.00 0.15 0.00 88 1010.2
20260507012723 10 0.0 0.0 0.00 0.15 0.00 87 1010.1
20260507011721 10 0.0 0.0 0.00 0.15 0.00 86 1010.1
20260507010719 10 0.0 0.0 0.00 0.15 0.00 86 1010.1
20260507005716 10 0.0 0.0 0.00 0.15 0.00 85 1010.1
20260507004715 10 0.0 0.0 0.00 0.15 0.00 85 1010.0
20260507003713 10 0.0 0.0 0.00 0.15 0.00 85 1009.8
20260507002711 11 0.0 0.0 0.00 0.15 0.00 86 1009.8
20260507001709 11 0.0 0.0 0.00 0.15 0.00 85 1009.7
20260507000707 11 0.0 0.0 0.00 0.18 0.00 85 1009.7
20260506235705 11 0.0 0.0 0.00 0.20 0.00 85 1009.6
20260506234703 11 0.0 0.0 0.00 0.23 0.00 85 1009.7
20260506233702 11 0.0 0.0 0.00 0.25 0.00 85 1009.6
20260506232659 11 0.0 0.0 0.00 0.25 0.00 85 1009.5
20260506231657 11 0.0 0.0 0.00 0.25 0.00 85 1009.4
20260506230654 11 0.0 0.0 0.00 0.25 0.00 85 1009.3
20260506225653 11 0.0 0.0 0.00 0.25 0.00 85 1009.2
20260506224651 11 0.0 0.0 0.00 0.25 0.00 85 1009.2
20260506223649 11 0.0 0.0 0.00 0.25 0.00 85 1009.1
20260506222647 11 0.0 0.0 0.00 0.25 0.00 85 1009.1
20260506221645 11 0.0 0.0 0.00 0.25 0.00 85 1009.1
20260506220643 11 0.0 0.0 0.00 0.25 0.00 85 1009.0
20260506215641 11 0.0 0.0 0.00 0.25 0.25 85 1009.0
20260506214639 11 0.0 0.0 0.00 0.25 0.25 85 1008.9
20260506213637 11 0.0 0.0 0.00 0.25 0.25 85 1008.8
20260506212634 11 0.0 0.0 0.00 0.25 0.25 85 1008.8
20260506211632 12 0.0 0.0 0.00 0.25 0.25 86 1008.7
20260506210631 12 0.0 0.0 0.00 0.25 0.25 86 1008.7
20260506205629 12 0.0 0.0 0.00 0.25 0.25 86 1008.6
20260506204627 12 0.0 0.0 0.00 0.25 0.25 85 1008.6
20260506203624 12 0.0 0.0 0.00 0.25 0.25 86 1008.5
20260506202623 12 0.0 0.0 0.00 0.25 0.25 85 1008.4
20260506201621 12 0.0 0.0 0.00 0.25 0.25 85 1008.2
20260506200619 12 0.0 0.0 0.00 0.25 0.25 85 1008.1
20260506195616 12 0.0 0.0 0.00 0.25 0.25 85 1008.0
20260506194614 12 0.0 0.0 0.00 0.25 0.25 86 1008.0
20260506193613 12 0.0 0.0 0.00 0.25 0.25 86 1007.9
20260506192611 12 0.0 0.0 0.00 0.25 0.25 86 1007.8
20260506191609 12 0.0 0.0 0.00 0.25 0.25 86 1007.5
20260506190606 12 0.0 0.0 0.00 0.25 0.25 85 1007.3
20260506185604 12 0.0 0.0 0.00 0.25 0.25 86 1007.1
20260506184603 12 0.0 0.0 0.00 0.25 0.25 85 1007.1
20260506183601 13 0.0 0.0 0.00 0.25 0.25 85 1007.0
20260506182559 13 0.0 0.0 0.00 0.25 0.25 85 1006.9
20260506181556 13 0.0 0.0 0.00 0.25 0.25 84 1006.7
20260506180554 13 0.0 0.0 0.00 0.25 0.25 85 1006.8
20260506175553 13 0.0 0.0 0.05 0.25 0.25 85 1006.6
20260506174550 13 0.0 0.0 0.10 0.25 0.25 85 1006.5
20260506173549 14 0.0 0.0 0.10 0.25 0.25 85 1006.4
20260506172547 14 0.0 0.0 0.13 0.28 0.25 85 1006.2
20260506171544 14 0.0 0.0 0.15 0.28 0.25 84 1006.2
20260506170543 15 0.0 0.0 0.15 0.28 0.25 84 1006.1
20260506165541 15 0.0 0.0 0.10 0.25 0.20 83 1006.1
20260506164539 15 0.0 0.0 0.05 0.20 0.15 83 1006.1
20260506163536 15 0.0 0.0 0.05 0.23 0.15 83 1006.0
20260506162535 15 0.0 0.0 0.03 0.20 0.13 81 1006.0
20260506161533 16 0.0 0.0 0.00 0.20 0.10 79 1006.0
20260506160531 16 0.0 0.0 0.00 0.20 0.10 77 1006.0
20260506155528 16 0.0 0.0 0.00 0.20 0.10 75 1006.0
20260506154527 16 0.0 0.0 0.00 0.23 0.10 73 1005.9
20260506153525 17 0.0 0.0 0.00 0.23 0.10 71 1005.8
20260506152523 17 0.0 0.0 0.00 0.23 0.10 70 1005.7
20260506151521 17 0.0 0.0 0.00 0.23 0.10 69 1005.6
20260506150519 17 0.0 0.0 0.00 0.25 0.10 67 1005.5
20260506145517 18 0.0 0.0 0.00 0.25 0.10 65 1005.5
20260506144517 18 0.0 0.0 0.00 0.25 0.10 65 1005.5
20260506143513 19 0.0 0.0 0.00 0.25 0.10 63 1005.4
20260506142511 19 0.0 0.0 0.00 0.25 0.10 62 1005.3
20260506141509 20 0.0 0.0 0.00 0.28 0.10 63 1005.3
20260506140506 20 0.0 0.0 0.00 0.30 0.10 64 1005.2
20260506135505 20 0.0 0.0 0.00 0.33 0.10 64 1005.2
20260506134503 19 0.0 0.0 0.00 0.33 0.10 63 1005.2
20260506133000 19 0.0 0.0 0.00 0.33 0.10 66 1005.3
20260506131958 18 0.0 0.0 0.00 0.33 0.10 67 1005.3
20260506130956 18 0.0 0.0 0.00 0.33 0.10 67 1005.3
20260506125954 18 0.0 0.0 0.00 0.33 0.10 67 1005.3
20260506124952 18 0.0 0.0 0.00 0.33 0.10 67 1005.4
20260506123950 18 0.0 0.0 0.00 0.33 0.10 68 1005.4
20260506122948 18 0.0 0.0 0.00 0.33 0.10 68 1005.3
20260506121946 18 0.0 0.0 0.00 0.33 0.10 68 1005.4
20260506120944 17 0.0 0.0 0.00 0.33 0.10 69 1005.5
20260506115942 17 0.0 0.0 0.00 0.33 0.10 69 1005.4
20260506114940 17 0.0 0.0 0.00 0.33 0.10 69 1005.4
20260506113938 17 0.0 0.0 0.00 0.33 0.10 70 1005.5
20260506112935 17 0.0 0.0 0.00 0.33 0.10 69 1005.5
20260506111934 17 0.0 0.0 0.00 0.33 0.10 68 1005.6
20260506110932 17 0.0 0.0 0.00 0.33 0.10 69 1005.6
20260506105930 17 0.0 0.0 0.00 0.33 0.10 69 1005.6
20260506104928 17 0.0 0.0 0.00 0.33 0.10 70 1005.6
20260506103926 17 0.0 0.0 0.00 0.33 0.10 69 1005.5
20260506102924 17 0.0 0.0 0.00 0.33 0.10 71 1005.6
20260506101921 17 0.0 0.0 0.00 0.33 0.10 71 1005.5
20260506100921 17 0.0 0.0 0.00 0.33 0.10 72 1005.6
20260506095918 17 0.0 0.0 0.00 0.33 0.10 72 1005.6
20260506094916 17 0.0 0.0 0.00 0.33 0.10 74 1005.7
20260506093914 16 0.0 0.0 0.00 0.33 0.10 74 1005.7
20260506092913 16 0.0 0.0 0.00 0.33 0.10 77 1005.7
20260506091910 16 0.0 0.0 0.00 0.33 0.10 77 1005.8
20260506090908 16 0.0 0.0 0.00 0.33 0.10 77 1005.7
20260506085906 16 0.0 0.0 0.00 0.33 0.10 77 1005.6
20260506084904 16 0.0 0.0 0.00 0.33 0.10 77 1005.5
20260506083901 16 0.0 0.0 0.00 0.33 0.10 78 1005.4
20260506082900 16 0.0 0.0 0.00 0.33 0.10 80 1005.4
20260506081858 15 0.0 0.0 0.00 0.33 0.10 80 1005.3
20260506080855 15 0.0 0.0 0.00 0.33 0.10 85 1005.5